MDT,Max TemperatureF,Mean TemperatureF,Min TemperatureF,Max Dew PointF,MeanDew PointF,Min DewpointF,Max Humidity, Mean Humidity, Min Humidity, Max Sea Level PressureIn, Mean Sea Level PressureIn, Min Sea Level PressureIn, Max VisibilityMiles, Mean VisibilityMiles, Min VisibilityMiles, Max Wind SpeedMPH, Mean Wind SpeedMPH, Max Gust SpeedMPH,PrecipitationIn, CloudCover, Events, WindDirDegrees
2013-5-1,41,32,23,21,17,9,81,58,34,30.66,30.29,30.04,10,10,10,28,13,36,0.00,4,,59
2013-5-2,52,37,21,19,13,5,84,51,18,30.74,30.60,30.40,10,10,10,17,7,23,0.00,0,,248
2013-5-3,63,46,28,17,8,6,33,22,11,30.37,30.11,29.92,10,10,10,25,6,35,0.00,1,,74
2013-5-4,62,51,40,27,23,18,55,38,20,30.02,29.92,29.85,10,10,10,36,25,41,T,3,,64
2013-5-5,63,50,37,37,26,21,71,46,21,30.04,29.97,29.89,10,10,10,35,17,39,0.01,3,,68
2013-5-6,64,51,37,37,31,25,71,48,25,29.99,29.91,29.80,10,10,10,30,9,36,T,4,,110
2013-5-7,58,50,41,42,38,33,89,66,43,30.05,29.94,29.84,10,9,2,21,8,24,0.17,6,Rain,229
2013-5-8,60,48,35,42,36,28,92,63,33,30.10,29.99,29.92,10,10,7,37,9,45,0.02,5,Rain,92
2013-5-9,65,51,37,38,31,25,85,54,22,30.22,30.08,30.01,10,10,9,31,7,37,T,3,Rain,91
2013-5-10,69,55,41,38,29,17,76,46,16,30.38,30.18,30.12,10,10,10,21,7,28,T,4,,50
2013-5-11,70,53,36,32,27,21,70,43,16,30.31,30.23,30.14,10,10,10,25,7,31,0.00,2,,319
2013-5-12,79,62,45,32,29,26,49,32,15,30.19,30.10,30.02,10,10,10,24,11,30,0.00,2,,266
2013-5-13,81,66,50,32,29,24,41,27,13,30.10,30.01,29.89,10,10,10,21,9,25,0.00,1,,240
2013-5-14,81,64,47,30,26,22,41,27,12,29.91,29.85,29.77,10,10,10,24,8,32,0.00,1,,260
2013-5-15,77,60,43,43,30,24,63,40,17,30.02,29.82,29.73,10,10,8,36,9,43,T,3,Rain,217
2013-5-16,73,59,44,48,40,30,83,53,22,29.97,29.82,29.70,10,10,6,45,8,58,0.02,4,Rain-Thunderstorm,293
2013-5-17,74,59,43,43,36,19,92,53,14,29.90,29.77,29.67,10,10,10,33,11,43,0.00,3,,287
2013-5-18,59,49,39,40,34,28,73,54,35,30.00,29.87,29.80,10,10,10,35,14,40,T,3,Rain-Thunderstorm,253
2013-5-19,55,46,37,41,33,28,89,64,38,29.95,29.90,29.87,10,10,5,30,13,36,0.03,5,Rain,274
2013-5-20,51,45,38,42,39,36,100,83,66,30.19,30.08,29.96,10,8,2,12,7,22,0.31,8,Rain-Thunderstorm,348
2013-5-21,63,51,39,40,36,29,92,60,27,30.19,29.99,29.79,10,10,5,17,5,31,T,4,Rain,133
2013-5-22,73,58,42,38,29,20,70,42,13,29.78,29.65,29.55,10,10,10,31,13,38,0.00,0,,156
2013-5-23,77,62,46,32,22,14,58,34,9,29.81,29.59,29.52,10,10,10,40,18,53,0.00,0,,184
2013-5-24,71,55,38,26,20,11,59,34,9,29.98,29.89,29.70,10,10,10,32,11,38,0.00,0,,259
2013-5-25,75,61,47,28,17,11,34,22,9,30.01,29.81,29.74,10,10,10,28,9,36,0.00,0,,252
2013-5-26,76,61,45,27,18,13,36,23,9,29.82,29.76,29.70,10,10,10,31,10,44,0.00,0,,227
2013-5-27,70,59,47,30,20,9,46,29,11,29.82,29.76,29.71,10,10,10,35,13,45,0.00,0,,263
2013-5-28,65,54,43,41,29,14,89,55,21,29.79,29.67,29.56,10,10,10,44,13,51,T,5,Rain,219
2013-5-29,60,50,40,39,34,25,89,61,32,29.81,29.71,29.61,10,10,7,32,21,40,T,6,Rain,260
2013-5-30,59,49,38,34,25,17,73,47,21,29.89,29.79,29.70,10,10,10,37,23,48,T,3,,272
2013-5-31,63,51,38,24,20,16,51,34,17,30.13,29.98,29.86,10,10,10,31,20,39,0.00,1,,287